This demonstration page uses our WeatherBlox Daily Observations layout. Learn more.

Left ArrowRight Arrow

Hourly Observations for May 3, 2015

Temp ( °F °C ) Dew Point ( °F °C ) Humidity (%) Winds ( mph kmh ) Pressure ( in mb ) Visibility ( mi km ) Precip ( " mm )
12:16 am 00:16 Cloudy with Strong Thunderstorms 64 18 57 14 78 78 W 13 20 29.85 1011 2 3 0.00 0.00
12:30 am 00:30 Mostly Cloudy with Strong Thunderstorms 63 17 59 15 88 88 NW 12 19 29.85 1011 3 5 0.00 0.00
12:49 am 00:49 Cloudy with Strong Thunderstorms 61 16 59 15 94 94 VRB 2 4 29.85 1011 3 4 0.00 0.00
12:56 am 00:56 Cloudy with Strong Thunderstorms 61 16 57 14 88 88 ESE 6 9 29.83 1010 3 5 0.00 0.00
12:58 am 00:58 Cloudy with Strong Thunderstorms 61 16 57 14 88 88 ESE 5 7 29.86 1011 3 5 0.29 7.37
1:31 am 01:31 Mostly Cloudy with Thunderstorms 61 16 57 14 88 88 ENE 6 9 29.85 1011 8 13 0.00 0.00
1:58 am 01:58 Cloudy with Thunderstorms 60 15.4 58 14.2 93 93 ESE 9 15 29.83 1010 10 16 0.05 1.27
2:14 am 02:14 Cloudy with Thunderstorms 59 15 57 14 94 94 ESE 9 15 29.80 1009 10 16 0.00 0.00
2:21 am 02:21 Cloudy 61 16 57 14 88 88 E 6 9 29.77 1008 10 16 0.00 0.00
2:58 am 02:58 Cloudy 60 15.4 57 14.1 92 92 NE 5 7 29.82 1010 10 16 0.00 0.03
3:02 am 03:02 Cloudy with Thunderstorms 59 15 57 14 94 94 VRB 1 2 29.80 1009 10 16 0.00 0.00
3:17 am 03:17 Cloudy with Nearby Thunderstorms 61 16 57 14 88 88 ENE 5 7 29.80 1009 10 16 0.00 0.00
3:36 am 03:36 Cloudy 61 16 57 14 88 88 E 9 15 29.77 1008 10 16 0.00 0.00
3:47 am 03:47 Cloudy with Thunderstorms 59 15 57 14 94 94 SE 7 11 29.77 1008 10 16 0.00 0.00
3:58 am 03:58 Cloudy with Thunderstorms 60 15.5 58 14.2 92 92 E 9 15 29.80 1009 10 16 0.00 0.03
4:00 am 04:00 Mostly Cloudy with Thunderstorms 59 15 57 14 94 94 E 9 15 29.77 1008 10 16 0.00 0.00
4:06 am 04:06 Mostly Cloudy with Light Rain 59 15 57 14 94 94 ESE 8 13 29.77 1008 10 16 0.00 0.00
4:12 am 04:12 Mostly Cloudy 59 15 57 14 94 94 SE 10 17 29.74 1007 10 16 0.00 0.00
4:58 am 04:58 Clear 59 15.2 57 13.7 91 91 SE 7 11 29.77 1008 10 16 0.01 0.25
5:58 am 05:58 Clear 59 14.9 56 13.2 90 90 SE 7 11 29.75 1007 10 16 0.00 0.00
6:58 am 06:58 Sunny 60 15.7 56 13.4 86 86 SE 12 19 29.75 1007 10 16 0.00 0.00
7:58 am 07:58 Sunny 63 17.3 56 13.5 79 79 SE 13 20 29.75 1007 10 16 0.00 0.00
8:58 am 08:58 Sunny 67 19.5 58 14.5 73 73 S 12 19 29.75 1007 10 16 0.00 0.00
9:58 am 09:58 Sunny 70 21.3 60 15.3 69 69 S 14 22 29.73 1007 10 16 0.00 0.00
10:58 am 10:58 Sunny 74 23.2 60 15.5 62 62 S 13 20 29.74 1007 10 16 0.00 0.00
11:58 am 11:58 Sunny 77 25.1 61 16.3 58 58 S 8 13 29.74 1007 10 16 0.00 0.00
12:58 pm 12:58 Sunny 80 26.6 61 15.9 52 52 S 8 13 29.74 1007 10 16 0.00 0.00
1:58 pm 13:58 Mostly Sunny 78 25.8 60 15.5 53 53 S 9 15 29.73 1007 10 16 0.00 0.00
2:58 pm 14:58 Mostly Sunny 77 25.1 60 15.3 55 55 SSE 14 22 29.71 1006 10 16 0.00 0.00
3:58 pm 15:58 Sunny 76 24.5 61 15.9 59 59 SSE 10 17 29.72 1007 10 16 0.00 0.00
4:13 pm 16:13 Sunny with Thunderstorms 77 25 54 12 44 44 S 16 26 29.68 1005 10 16 0.00 0.00
4:45 pm 16:45 Partly Cloudy with Nearby Thunderstorms 77 25 59 15 54 54 S 13 20 29.68 1005 10 16 0.00 0.00
4:58 pm 16:58 Partly Cloudy with Nearby Thunderstorms 77 25 60 15.3 55 55 SSE 10 17 29.70 1006 10 16 0.00 0.00
5:58 pm 17:58 Mostly Cloudy 77 24.9 59 15.2 55 55 VRB 6 9 29.71 1006 10 16 0.00 0.00
6:58 pm 18:58 Mostly Cloudy 76 24.4 61 15.9 59 59 Calm 29.72 1007 10 16 0.00 0.00
7:09 pm 19:09 Mostly Cloudy with Thunderstorms 75 24 61 16 61 61 VRB 2 4 29.68 1005 10 16 0.00 0.00
7:22 pm 19:22 Mostly Cloudy with Light Rain 75 24 63 17 65 65 S 17 28 29.71 1006 10 16 0.00 0.00
7:34 pm 19:34 Partly Cloudy with Thunderstorms 77 25 61 16 57 57 S 5 7 29.71 1006 10 16 0.00 0.00
7:58 pm 19:58 Mostly Cloudy with Thunderstorms 75 23.9 59 15.1 58 58 SSE 10 17 29.70 1006 10 16 0.00 0.03
8:00 pm 20:00 Mostly Cloudy 75 24 54 12 47 47 S 8 13 29.68 1005 10 16 0.00 0.00
8:58 pm 20:58 Partly Cloudy with Nearby Thunderstorms 74 23.5 53 11.7 48 48 S 8 13 29.74 1007 10 16 0.00 0.03
9:32 pm 21:32 Mostly Cloudy with Drizzle and Scattered Storms 72 22 52 11 50 50 N 6 9 29.71 1006 10 16 0.00 0.00
9:43 pm 21:43 Clear 72 22 54 12 53 53 S 1 2 29.71 1006 10 16 0.00 0.00
9:58 pm 21:58 Mostly Clear 71 21.5 55 12.8 58 58 N 10 17 29.79 1009 10 16 0.00 0.03
10:58 pm 22:58 Partly Cloudy 74 23.2 54 12.2 50 50 W 5 7 29.83 1010 10 16 0.00 0.00
11:09 pm 23:09 Mostly Clear with Drizzle 73 23 55 13 53 53 S 5 7 29.77 1008 10 16 0.00 0.00
11:12 pm 23:12 Mostly Clear with Thunderstorms 73 23 55 13 53 53 SSW 6 9 29.77 1008 10 16 0.00 0.00
11:27 pm 23:27 Mostly Cloudy 72 22 57 14 61 61 SSW 7 11 29.77 1008 10 16 0.00 0.00
11:58 pm 23:58 Mostly Clear 70 20.9 56 13.1 61 61 NW 12 19 29.84 1011 10 16 0.00 0.03

Powered by AerisWeather